This demonstration page uses our WeatherBlox Daily Observations layout. Learn more.

Left ArrowRight Arrow

44.8408, -93.29828

Hourly Observations for July 10, 2022

Temp ( °F °C ) Dew Point ( °F °C ) Humidity (%) Winds ( mph kmh ) Pressure ( in mb ) Visibility ( mi km ) Precip ( " mm )
12:53 am 00:53 Clear 74 23.3 61 16.1 64 64 S 12 19 30.08 1019 10 16 0.00 0.00
1:53 am 01:53 Mostly Clear 73 22.8 60 15.6 64 64 S 9 15 30.06 1018 10 16 0.00 0.00
2:53 am 02:53 Mostly Clear 72 22.2 59 15 64 64 S 9 15 30.05 1018 10 16 0.00 0.00
3:53 am 03:53 Mostly Clear 71 21.7 58 14.4 63 63 S 9 15 30.06 1018 10 16 0.00 0.00
4:53 am 04:53 Partly Cloudy 72 22.2 57 13.9 59 59 S 10 17 30.05 1018 10 16 0.00 0.00
5:53 am 05:53 Partly Cloudy 71 21.7 57 13.9 61 61 S 10 17 30.03 1017 10 16 0.00 0.00
6:53 am 06:53 Partly Cloudy 71 21.7 58 14.4 63 63 S 10 17 30.04 1017 10 16 0.00 0.00
7:53 am 07:53 Mostly Cloudy 72 22.2 60 15.6 66 66 S 10 17 30.03 1017 10 16 0.00 0.00
8:53 am 08:53 Mostly Cloudy 74 23.3 63 17.2 69 69 S 10 17 30.01 1016 10 16 0.00 0.00
9:53 am 09:53 Mostly Cloudy 78 25.6 65 18.3 64 64 S 15 24 29.97 1015 10 16 0.00 0.00
10:53 am 10:53 Mostly Cloudy 81 27.2 66 18.9 61 61 S 15 24 29.94 1014 10 16 0.00 0.00
11:53 am 11:53 Mostly Cloudy 81 27.2 66 18.9 61 61 S 15 24 29.93 1013 10 16 0.00 0.00
12:02 pm 12:02 Mostly Cloudy with Nearby Thunderstorms 81 27.2 66 18.9 61 61 S 13 20 29.90 1012 10 16 0.00 0.00
12:17 pm 12:17 Mostly Cloudy 83 28.3 66 18.9 57 57 SSE 17 28 29.86 1011 10 16 0.00 0.00
12:50 pm 12:50 Mostly Cloudy with Nearby Thunderstorms 82 28 66 19 58 58 SSE 14 22 29.82 1010 10 16 0.00 0.00
12:53 pm 12:53 Mostly Cloudy with Nearby Thunderstorms 82 27.8 67 19.4 60 60 SSE 17 28 29.85 1011 10 16 0.00 0.00
1:03 pm 13:03 Cloudy with Thunderstorms 79 26.1 68 20 69 69 SSE 14 22 29.82 1010 8 13 0.00 0.00
1:24 pm 13:24 Mostly Cloudy 78 25.6 70 21.1 76 76 SSE 12 19 29.80 1009 10 16 0.03 0.76
1:53 pm 13:53 Mostly Cloudy 80 26.7 71 21.7 74 74 SE 10 17 29.83 1010 10 16 0.03 0.76
2:36 pm 14:36 Mostly Cloudy with Thunderstorms 80 26.7 70 21.1 71 71 SE 16 26 29.79 1009 10 16 0.00 0.00
2:50 pm 14:50 Mostly Cloudy with Light Rain 81 27 70 21 70 70 SSE 13 20 29.76 1008 10 16 0.01 0.25
2:53 pm 14:53 Mostly Cloudy with Light Rain 81 27.2 71 21.7 72 72 SSE 14 22 29.78 1008 10 16 0.01 0.25
3:53 pm 15:53 Cloudy 84 28.9 65 18.3 53 53 SSW 9 15 29.81 1010 10 16 0.00 0.00
4:53 pm 16:53 Cloudy 83 28.3 68 20 61 61 S 7 11 29.80 1009 10 16 0.00 0.00
5:53 pm 17:53 Cloudy 83 28.3 69 20.6 63 63 SSE 9 15 29.77 1008 10 16 0.00 0.00
6:53 pm 18:53 Cloudy 84 28.9 69 20.6 61 61 SSE 6 9 29.76 1008 10 16 0.00 0.00
7:53 pm 19:53 Mostly Cloudy 83 28.3 70 21.1 65 65 VRB 5 7 29.74 1007 10 16 0.00 0.00
8:53 pm 20:53 Mostly Cloudy 84 28.9 71 21.7 65 65 Calm 29.73 1007 10 16 0.00 0.00
9:53 pm 21:53 Mostly Cloudy 81 27.2 71 21.7 72 72 SSE 5 7 29.73 1007 10 16 0.00 0.00
10:53 pm 22:53 Mostly Cloudy 82 27.8 72 22.2 72 72 WSW 6 9 29.73 1007 10 16 0.00 0.00
11:53 pm 23:53 Mostly Clear 80 26.7 72 22.2 76 76 NW 10 17 29.73 1007 10 16 0.00 0.00

Powered by AerisWeather